Location: Castro Valley
(37.6940°N, 122.0850°W)
Time: 05:14:28
(UTC-07:00)

PANSAT - Visible Passes

Search period start: 01 October 2014 00:00
Search period end: 11 October 2014 00:00
Orbit: 491 x 496 km, 28.5° (Epoch: 01 October)

Date Brightness Start Highest point End Pass type
(mag) Time Alt. Az. Time Alt. Az. Time Alt. Az.
01 Oct 9.7 19:45:31 10° SSW 19:47:47 15° SSE 19:49:34 12° SE visible
02 Oct 9.7 19:20:07 10° SSW 19:22:28 16° SSE 19:24:49 10° SE visible
02 Oct 10.1 20:59:07 10° SW 21:00:07 15° SW 21:00:07 15° SW visible
03 Oct 9.5 20:33:48 10° SW 20:36:13 20° SSW 20:36:13 20° SSW visible
04 Oct 9.3 20:08:28 10° SW 20:11:24 21° S 20:12:18 19° SSE visible
05 Oct 9.5 19:43:08 10° SW 19:46:03 20° S 19:48:23 13° SE visible
06 Oct 9.6 19:17:47 10° SW 19:20:42 20° S 19:23:36 10° SE visible
06 Oct 10.4 20:58:27 10° SW 20:58:53 11° SW 20:58:53 11° SW visible
07 Oct 10.1 20:33:13 10° SW 20:34:52 12° SSW 20:34:59 12° SSW visible
08 Oct 10.2 20:08:01 10° SW 20:09:29 12° SSW 20:10:57 10° S visible
09 Oct 10.2 19:42:49 10° SW 19:44:05 11° SSW 19:45:21 10° S visible
10 Oct 10.4 19:17:41 10° SSW 19:18:41 11° SSW 19:19:41 10° S visible
